Regional Weather Roundup
Issued by NWS

Current Version | Previous Version | Text Only | Print | Product List | Glossary On
Versions: 1 2 3 4 5 6 7 8 9 10 11 12 13 14 15 16 17 18 19 20 21 22 23 24 25 26 27 28 29 30 31 32 33 34 35 36 37 38 39 40 41 42 43 44 45 46 47 48 49 50
000
ASUS46 KSTO 270215
RWRCA

NORTHERN AND CENTRAL CA REGIONAL WEATHER ROUNDUP
NATIONAL WEATHER SERVICE SACRAMENTO CA
700 PM PDT TUE MAY 26 2020

NOTE: FAIR INDICATES FEW OR NO CLOUDS BELOW 12,000 FEET WITH NO
SIGNIFICANT WEATHER AND/OR OBSTRUCTIONS TO VISIBILITY.

CAZ001-003-270300-
NORTHWEST AREA

CITY           SKY/WX    TMP DP  RH WIND       PRES   REMARKS
CRESCENT CITY  FAIR      61  52  72 NW7       30.05F
UKIAH          FAIR      91  52  26 N8        29.86S
$$

CAZ006-505>513-270300-
BAY AREA

CITY           SKY/WX    TMP DP  RH WIND       PRES   REMARKS
SANTA ROSA     FAIR      93  59  31 S8        29.80F HX  92
SAN RAFAEL     N/A       MM  MM  MM MISG
NAPA           FAIR      85  64  49 SW10      29.80S
CONCORD        FAIR      97  57  26 W12       29.79S HX  96
OAKLAND CITY   N/A       85  MM  MM MISG
OAKLAND        FAIR      82  56  40 W5        29.83S
SAN FRAN CITY  N/A       78  MM  39 MISG
SAN FRAN ARPT  FAIR      81  53  37 W16       29.82S
LIVERMORE      FAIR      93  50  23 W14       29.80S HX  90
HAYWARD        FAIR      84  58  40 W8        29.82S
SAN JOSE ARPT  FAIR      90  53  28 N15       29.81S
$$
CAZ034-037-514>518-270300-
CENTRAL COAST

CITY           SKY/WX    TMP DP  RH WIND       PRES   REMARKS
WATSONVILLE    FAIR      77  51  40 SW5       29.87S
SALINAS        FAIR      71  54  54 NW13      29.86S
MONTEREY       FAIR      70  56  61 NE5       29.88R
SAN LUIS OBISP FAIR      75  53  46 SE5       29.87F
SANTA MARIA    FAIR      69  56  62 W6        29.89S
$$
CAZ015-016-270300-
NORTHERN SACRAMENTO VALLEY

CITY           SKY/WX    TMP DP  RH WIND       PRES   REMARKS
REDDING        FAIR      94  61  33 CALM      29.79F HX  94
RED BLUFF      FAIR      94  52  24 S3        29.79F HX  91
OROVILLE       FAIR      99  54  22 CALM      29.79F HX  97
$$
CAZ016>018-270300-
SOUTHERN SACRAMENTO VALLEY

CITY           SKY/WX    TMP DP  RH WIND       PRES   REMARKS
AUBURN         SUNNY     86  55  35 CALM      29.88F
BEALE AFB      FAIR      97  58  27 SW3       29.76F HX  96
LINCOLN        FAIR      97  54  23 CALM      29.77S HX  94
MARYSVILLE     FAIR      97  57  26 SE5       29.77F HX  96
SAC INTL ARPT  FAIR      99  59  26 S8        29.76F HX  99
MATHER AIRPORT SUNNY    100  50  18 W3        29.76  HX  97
DOWNTOWN SAC   N/A      101  MM  MM MISG
SAC EXEC ARPT  FAIR      99  54  22 SW6       29.77S HX  97
VACAVILLE      FAIR      98  57  25 SW10      29.78F HX  97
TRAVIS AFB     SUNNY     97  56  25 SW14      29.78S HX  95
$$
CAZ019>021-270300-
SAN JOAQUIN VALLEY

CITY           SKY/WX    TMP DP  RH WIND       PRES   REMARKS
STOCKTON       FAIR     101  56  22 NW10      29.77F HX 100
MODESTO        FAIR      99  50  19 N8        29.77S HX  96
MERCED         FAIR      97  54  23 NW7       29.77F HX  95
LEMOORE        FAIR      98  52  21 N9        29.78S HX  95
FRESNO         FAIR     100  47  16 NW8       29.78S HX  96
HANFORD        FAIR      95  56  26 N6        29.78S HX  93
PORTERVILLE    FAIR      99  52  20 NW9       29.79S HX  96
BAKERSFIELD    FAIR      99  44  15 N10       29.78S HX  95
$$
CAZ011-012-071-270300-
NORTHERN MOUNTAINS

CITY           SKY/WX    TMP DP  RH WIND       PRES   REMARKS
YREKA          FAIR      83  51  33 N15       29.98S
MOUNT SHASTA   CLOUDY    77  52  41 CALM      30.00F
ALTURAS        PTSUNNY   78  49  35 W10       30.04S
$$
CAZ011-012-071-270300-
SIERRA NEVADA MTNS

CITY           SKY/WX    TMP DP  RH WIND       PRES   REMARKS
BLUE CANYON    FAIR      73  47  39 VRB3      30.17S
TRUCKEE        FAIR      72  46  40 W9        30.19R
TAHOE VLY ARPT FAIR      73  45  36 S7        30.19S
MAMMOTH LAKES  FAIR      75  34  22 SW6G16    30.24R
$$



USA.gov is the U.S. government's official web portal to all federal, state and local government web resources and services.